Starlink 31058

operational
NORAD ID: 58677 Int'l Des: 2023-211 Owner: SPXS Country: US Constellation: starlink
LEOCIRCULAR

About Starlink 31058

Description loading...

Live Position

Loading 3D Globe...

Upcoming Passes

Altitude History

Altitude vs Time

uPlot chart will show altitude changes over time

Two-Line Element Set

1 58677U 23211L 25306.09792348 .00007762 00000-0 29105-3 0 9992
2 58677 42.9982 85.6359 0001787 282.3209 77.7442 15.27605127102958
Epoch: Nov 2, 2025 • Age: 37 hours

Current Status

Altitude 485.2 km
Velocity 7.62 km/s
Sub-Earth Point -12.58°S, 2.04°W
Launch Date Dec 29, 2023
Age 1.8 years
Type internet

Technical Details

Classification Payload
Mass 730.00 kg
Dry Mass 700.00 kg
Total Mass 730.00 kg
Length 0.30 m
Diameter 4.10 m
Span 29.00 m
Shape Box + pan
Manufacturer SPXS
Bus Type Starlink V2M
Phase Status In Orbit
Owner/State SPXS/US

Large Constellations

Loading constellations...